STARLINK-35547, 66119

Orbit data source: Space-Track

STARLINK-35547, 66119 is a payload satellite owned by SpaceX/Seattle (US) in LEO that was launched on Wed, 22 Oct 2025 UTC via an FALCON 9 launch vehicle from the Air Force Western Test Range (AFWTR). Payload-class satellites include a variety of spacecraft equipped with specific instruments for various scientific and technological missions. These include communications satellites like Starlink; space stations such as the ISS; scientific satellites like the Hubble; Earth observation satellites from companies like Planet Labs, Umbra, and HawkEye 360; GPS; miniature CubeSats for education and research; and military/defense satellites.

Loading next visibility...
Identifier
66119, 2025-237F
Orbit
LEO
Country
Flag of USUS
Related business
Manufacturer
SpaceX/Seattle
Mission
Operational Commercial Communications
Bus & Motor
STARLINK V2MO, Unknown motor
Mass
575 kg wet, ~530 kg dry
Launch date (UTC)
2025-10-22 (4 months ago)
Launch vehicle
FALCON 9
Launch site
Air Force Western Test Range (AFWTR)
Object type
Payload
Rocket body
Debris
Shape & HBR
Box + 2 Pan, 17.7 m
Radar Cross Section
36.964 m²

Expand to show TLE details & history
Last TLE update: 16 hours ago

TLE from 16 hours ago
0 STARLINK-35547
1 66119U 25237F   26061.45126551  .00033496  00000-0  11388-2 0  9994
2 66119  53.1591  73.1543 0001724 118.1461 241.9714 15.30175364 21509
Epoch: 2026-03-02T10:49Z
TLE epoch observation values (Epoch: 2026-03-02T10:49:49.340Z)
Latitude
-0.00001°
Longitude
110.45422°
Altitude
476.744 km
Speed
7.628 km/s
True Right ascension
04h 52m 37s
True Declination
0° 00' 00"
Sunlit
Object was in daylight at epoch
Visualization orbit readout
Latitude
Unknown
Longitude
Unknown
Altitude
Unknown
Speed
Unknown
Apparent Right ascension
Unknown
Apparent Declination
Unknown
Sunlit
N/A
Visualization observer readout
Local Sidereal Time
06:58:32
Azimuth
Unknown
Elevation
Unknown
Doppler factor
Unknown
Orbital elements
Apogee altitude
476.727 km
Perigee altitude
474.364 km
Semi-major axis
6,853.682 km
Eccentricity
0.00017
Inclination
53.1591°
RAAN
73.1543°
Arg. of periapsis
118.1461°
True anomaly
241.95396°
Mean anomaly
241.9714°
Eccentric anomaly
241.96268°
Mean motion
3.82523 °/min
Orbital period
94.11 mins
BSTAR
0.0011388
Loading maneuver chart data...
Computing Atmospheric mass density...
Loading historical data...
Loading historical data...
Loading historical data...
Loading historical data...
Loading historical data...
Loading historical data...
Loading historical data...

Documentation

Showing up to 5 results
|